Wetterdaten: Donnerstag, 22.03.2018
Datum Zeit Temp. A. Aussen2m Boden Feuchte A. Feuchte 2 Luftdruck Regen Wind Richtung Richtung Sonnenschein
22.03.2018 00:00 2,8 C 2,7 C 1,5 C 80 % 80 % 1021,9 hPa 0,0 l/m 10,3 km/h (2 Bft) S-SW 205 0 min
22.03.2018 00:05 2,8 C 2,7 C 1,5 C 80 % 80 % 1021,9 hPa 0,0 l/m 10,9 km/h (2 Bft) S-SW 210 0 min
22.03.2018 00:10 2,7 C 2,7 C 1,5 C 80 % 80 % 1021,9 hPa 0,0 l/m 10,9 km/h (2 Bft) SW 220 0 min
22.03.2018 00:15 2,7 C 2,7 C 1,5 C 80 % 80 % 1021,9 hPa 0,0 l/m 8,5 km/h (2 Bft) SW 225 0 min
22.03.2018 00:20 2,8 C 2,7 C 1,5 C 80 % 80 % 1021,9 hPa 0,0 l/m 9,1 km/h (2 Bft) S-SW 200 0 min
22.03.2018 00:25 2,9 C 2,7 C 1,7 C 80 % 80 % 1022,9 hPa 0,0 l/m 10,9 km/h (2 Bft) S-SW 210 0 min
22.03.2018 00:30 3,0 C 2,8 C 1,7 C 80 % 80 % 1022,9 hPa 0,0 l/m 12,7 km/h (3 Bft) SW 230 0 min
22.03.2018 00:35 2,9 C 2,8 C 1,7 C 80 % 80 % 1022,9 hPa 0,0 l/m 8,5 km/h (2 Bft) W-SW 245 0 min
22.03.2018 00:40 2,9 C 2,8 C 1,7 C 80 % 80 % 1020,9 hPa 0,0 l/m 14,5 km/h (3 Bft) SW 235 0 min
22.03.2018 00:45 2,8 C 2,8 C 1,7 C 80 % 80 % 1020,9 hPa 0,0 l/m 9,1 km/h (2 Bft) W 280 0 min
22.03.2018 00:50 2,8 C 2,7 C 1,7 C 80 % 80 % 1020,9 hPa 0,0 l/m 5,4 km/h (2 Bft) W-SW 245 0 min
22.03.2018 00:55 2,8 C 2,8 C 1,7 C 80 % 80 % 1021,9 hPa 0,0 l/m 6,1 km/h (2 Bft) SW 215 0 min
22.03.2018 01:00 2,8 C 2,7 C 1,7 C 81 % 80 % 1021,9 hPa 0,0 l/m 4,8 km/h (1 Bft) SW 215 0 min
22.03.2018 01:05 2,8 C 2,7 C 1,7 C 81 % 81 % 1021,9 hPa 0,0 l/m 5,4 km/h (2 Bft) SW 230 0 min
22.03.2018 01:10 2,9 C 2,7 C 1,7 C 81 % 81 % 1020,9 hPa 0,0 l/m 6,1 km/h (2 Bft) SW 235 0 min
22.03.2018 01:15 3,0 C 2,8 C 1,7 C 81 % 81 % 1020,9 hPa 0,0 l/m 7,3 km/h (2 Bft) SW 215 0 min
22.03.2018 01:20 3,1 C 2,9 C 1,7 C 80 % 80 % 1020,9 hPa 0,0 l/m 6,7 km/h (2 Bft) SW 230 0 min
22.03.2018 01:25 3,1 C 2,9 C 1,7 C 80 % 81 % 1020,9 hPa 0,0 l/m 10,9 km/h (2 Bft) S-SW 195 0 min
22.03.2018 01:30 3,1 C 3,0 C 1,7 C 80 % 80 % 1020,9 hPa 0,0 l/m 11,5 km/h (2 Bft) SW 230 0 min
22.03.2018 01:35 3,2 C 3,0 C 1,7 C 80 % 80 % 1020,9 hPa 0,0 l/m 16,9 km/h (3 Bft) S-SW 210 0 min
22.03.2018 01:40 3,2 C 3,1 C 1,7 C 80 % 80 % 1020,9 hPa 0,0 l/m 12,1 km/h (2 Bft) SW 220 0 min
22.03.2018 01:45 3,1 C 3,1 C 1,7 C 81 % 80 % 1020,9 hPa 0,0 l/m 6,7 km/h (2 Bft) SW 220 0 min
22.03.2018 01:50 3,1 C 3,1 C 1,7 C 81 % 80 % 1020,9 hPa 0,0 l/m 6,1 km/h (2 Bft) S-SW 200 0 min
22.03.2018 01:55 3,2 C 3,1 C 1,7 C 80 % 80 % 1020,9 hPa 0,0 l/m 9,7 km/h (2 Bft) SW 235 0 min
22.03.2018 02:00 3,3 C 3,2 C 1,7 C 80 % 80 % 1020,9 hPa 0,0 l/m 13,3 km/h (3 Bft) W-SW 245 0 min
22.03.2018 02:05 3,3 C 3,2 C 1,7 C 80 % 80 % 1020,9 hPa 0,0 l/m 10,9 km/h (2 Bft) S-SW 210 0 min
22.03.2018 02:10 3,3 C 3,3 C 1,7 C 80 % 80 % 1020,9 hPa 0,0 l/m 9,1 km/h (2 Bft) SW 230 0 min
22.03.2018 02:15 3,3 C 3,2 C 1,9 C 79 % 80 % 1020,9 hPa 0,0 l/m 9,7 km/h (2 Bft) S 185 0 min
22.03.2018 02:20 3,3 C 3,3 C 1,9 C 79 % 79 % 1020,9 hPa 0,0 l/m 10,3 km/h (2 Bft) S 185 0 min
22.03.2018 02:25 3,3 C 3,3 C 1,9 C 79 % 79 % 1019,9 hPa 0,0 l/m 12,7 km/h (3 Bft) S-SW 210 0 min
22.03.2018 02:30 3,4 C 3,3 C 1,9 C 79 % 79 % 1019,9 hPa 0,0 l/m 6,1 km/h (2 Bft) S 170 0 min
22.03.2018 02:35 3,4 C 3,3 C 1,9 C 79 % 79 % 1019,9 hPa 0,0 l/m 7,9 km/h (2 Bft) S 190 0 min
22.03.2018 02:40 3,4 C 3,4 C 1,9 C 78 % 78 % 1019,9 hPa 0,0 l/m 8,5 km/h (2 Bft) S-SW 210 0 min
22.03.2018 02:45 3,5 C 3,4 C 1,9 C 79 % 78 % 1019,9 hPa 0,0 l/m 10,3 km/h (2 Bft) SW 220 0 min
22.03.2018 02:50 3,6 C 3,4 C 1,9 C 79 % 79 % 1019,9 hPa 0,0 l/m 16,3 km/h (3 Bft) SW 230 0 min
22.03.2018 02:55 3,7 C 3,5 C 1,9 C 78 % 79 % 1019,9 hPa 0,0 l/m 16,3 km/h (3 Bft) SW 225 0 min
22.03.2018 03:00 3,7 C 3,5 C 1,9 C 78 % 78 % 1019,9 hPa 0,0 l/m 15,1 km/h (3 Bft) W-SW 250 0 min
22.03.2018 03:05 3,6 C 3,5 C 1,9 C 78 % 78 % 1019,9 hPa 0,0 l/m 10,9 km/h (2 Bft) SW 225 0 min
22.03.2018 03:10 3,6 C 3,5 C 1,9 C 78 % 78 % 1019,9 hPa 0,0 l/m 13,3 km/h (3 Bft) W 265 0 min
22.03.2018 03:15 3,7 C 3,6 C 1,9 C 78 % 78 % 1019,9 hPa 0,0 l/m 15,1 km/h (3 Bft) SW 215 0 min
22.03.2018 03:20 3,7 C 3,5 C 1,9 C 78 % 78 % 1019,9 hPa 0,0 l/m 15,1 km/h (3 Bft) W-SW 240 0 min
22.03.2018 03:25 3,6 C 3,6 C 1,9 C 78 % 79 % 1018,9 hPa 0,0 l/m 12,1 km/h (2 Bft) SW 235 0 min
22.03.2018 03:30 3,7 C 3,6 C 1,9 C 78 % 78 % 1018,9 hPa 0,0 l/m 12,1 km/h (2 Bft) W-SW 245 0 min
22.03.2018 03:35 3,7 C 3,6 C 1,9 C 78 % 79 % 1018,9 hPa 0,0 l/m 10,9 km/h (2 Bft) SW 225 0 min
22.03.2018 03:40 3,7 C 3,7 C 2,1 C 79 % 79 % 1018,9 hPa 0,0 l/m 11,5 km/h (2 Bft) SW 220 0 min
22.03.2018 03:45 3,7 C 3,7 C 2,1 C 79 % 79 % 1018,9 hPa 0,0 l/m 18,8 km/h (3 Bft) W 265 0 min
22.03.2018 03:50 3,7 C 3,6 C 2,1 C 79 % 79 % 1018,9 hPa 0,0 l/m 18,8 km/h (3 Bft) W 280 0 min
22.03.2018 03:55 3,7 C 3,7 C 2,1 C 79 % 79 % 1018,9 hPa 0,0 l/m 14,5 km/h (3 Bft) SW 235 0 min
22.03.2018 04:00 3,7 C 3,7 C 2,1 C 79 % 79 % 1018,9 hPa 0,0 l/m 12,1 km/h (2 Bft) W-SW 255 0 min
22.03.2018 04:05 3,8 C 3,7 C 2,1 C 79 % 79 % 1018,9 hPa 0,0 l/m 13,9 km/h (3 Bft) SW 235 0 min
22.03.2018 04:10 3,7 C 3,6 C 2,1 C 79 % 79 % 1017,9 hPa 0,0 l/m 17,6 km/h (3 Bft) S-SW 200 0 min
22.03.2018 04:15 3,8 C 3,7 C 2,1 C 79 % 79 % 1017,9 hPa 0,0 l/m 18,2 km/h (3 Bft) W-SW 240 0 min
22.03.2018 04:20 3,7 C 3,7 C 2,1 C 80 % 79 % 1017,9 hPa 0,0 l/m 15,7 km/h (3 Bft) SW 235 0 min
22.03.2018 04:25 3,7 C 3,6 C 2,1 C 80 % 80 % 1017,9 hPa 0,0 l/m 9,7 km/h (2 Bft) S-SO 155 0 min
22.03.2018 04:30 3,6 C 3,6 C 2,1 C 81 % 81 % 1017,9 hPa 0,0 l/m 13,3 km/h (3 Bft) SW 225 0 min
22.03.2018 04:35 3,6 C 3,6 C 2,1 C 81 % 81 % 1017,9 hPa 0,0 l/m 10,9 km/h (2 Bft) SW 220 0 min
22.03.2018 04:40 3,5 C 3,6 C 2,1 C 82 % 81 % 1017,9 hPa 0,0 l/m 10,9 km/h (2 Bft) W-SW 240 0 min
22.03.2018 04:45 3,5 C 3,5 C 2,1 C 83 % 82 % 1017,9 hPa 0,0 l/m 9,1 km/h (2 Bft) SW 220 0 min
22.03.2018 04:50 3,5 C 3,5 C 2,1 C 83 % 82 % 1017,9 hPa 0,0 l/m 16,9 km/h (3 Bft) W-SW 240 0 min
22.03.2018 04:55 3,6 C 3,5 C 2,3 C 83 % 82 % 1017,9 hPa 0,0 l/m 19,4 km/h (3 Bft) SW 215 0 min
22.03.2018 05:00 3,6 C 3,6 C 2,3 C 83 % 82 % 1017,9 hPa 0,0 l/m 13,3 km/h (3 Bft) S-SW 210 0 min
22.03.2018 05:05 3,6 C 3,6 C 2,3 C 83 % 83 % 1017,9 hPa 0,0 l/m 15,7 km/h (3 Bft) S-SW 210 0 min
22.03.2018 05:10 3,5 C 3,5 C 2,3 C 84 % 83 % 1016,9 hPa 0,0 l/m 8,5 km/h (2 Bft) SW 230 0 min
22.03.2018 05:15 3,5 C 3,5 C 2,3 C 84 % 83 % 1016,9 hPa 0,0 l/m 11,5 km/h (2 Bft) SW 215 0 min
22.03.2018 05:20 3,5 C 3,5 C 2,3 C 84 % 83 % 1016,9 hPa 0,0 l/m 12,7 km/h (3 Bft) S-SW 195 0 min
22.03.2018 05:25 3,6 C 3,6 C 2,3 C 84 % 83 % 1015,9 hPa 0,0 l/m 8,5 km/h (2 Bft) S 180 0 min
22.03.2018 05:30 3,5 C 3,6 C 2,3 C 84 % 83 % 1015,9 hPa 0,0 l/m 15,7 km/h (3 Bft) W-NW 285 0 min
22.03.2018 05:35 3,6 C 3,5 C 2,3 C 84 % 83 % 1015,9 hPa 0,0 l/m 13,3 km/h (3 Bft) SW 220 0 min
22.03.2018 05:40 3,6 C 3,6 C 2,3 C 85 % 84 % 1016,9 hPa 0,0 l/m 13,3 km/h (3 Bft) SW 225 0 min
22.03.2018 05:45 3,6 C 3,6 C 2,3 C 85 % 84 % 1016,9 hPa 0,0 l/m 15,1 km/h (3 Bft) SW 215 0 min
22.03.2018 05:50 3,6 C 3,6 C 2,3 C 85 % 84 % 1016,9 hPa 0,0 l/m 16,9 km/h (3 Bft) SW 230 0 min
22.03.2018 05:55 3,5 C 3,6 C 2,3 C 85 % 84 % 1016,9 hPa 0,0 l/m 10,9 km/h (2 Bft) SW 230 0 min
22.03.2018 06:00 3,5 C 3,6 C 2,3 C 86 % 85 % 1016,9 hPa 0,0 l/m 6,1 km/h (2 Bft) S 180 0 min
22.03.2018 06:05 3,5 C 3,5 C 2,3 C 86 % 85 % 1016,9 hPa 0,0 l/m 16,9 km/h (3 Bft) SW 225 0 min
22.03.2018 06:10 3,5 C 3,6 C 2,3 C 85 % 85 % 1016,9 hPa 0,0 l/m 12,7 km/h (3 Bft) SW 220 0 min
22.03.2018 06:15 3,5 C 3,6 C 2,3 C 85 % 85 % 1016,9 hPa 0,0 l/m 13,3 km/h (3 Bft) SW 215 0 min
22.03.2018 06:20 3,5 C 3,5 C 2,3 C 86 % 85 % 1016,9 hPa 0,0 l/m 13,9 km/h (3 Bft) W-SW 240 0 min
22.03.2018 06:25 3,5 C 3,6 C 2,3 C 87 % 85 % 1015,9 hPa 0,0 l/m 13,9 km/h (3 Bft) W-SW 240 0 min
22.03.2018 06:30 3,4 C 3,5 C 2,3 C 88 % 86 % 1015,9 hPa 0,0 l/m 16,9 km/h (3 Bft) SW 225 0 min
22.03.2018 06:35 3,3 C 3,4 C 2,3 C 88 % 87 % 1015,9 hPa 0,0 l/m 11,5 km/h (2 Bft) S 180 0 min
22.03.2018 06:40 3,3 C 3,4 C 2,3 C 88 % 87 % 1015,9 hPa 0,3 l/m 14,5 km/h (3 Bft) W-SW 240 0 min
22.03.2018 06:45 3,3 C 3,4 C 2,3 C 88 % 87 % 1015,9 hPa 0,0 l/m 16,3 km/h (3 Bft) W 260 0 min
22.03.2018 06:50 3,4 C 3,4 C 2,3 C 88 % 87 % 1015,9 hPa 0,0 l/m 19,4 km/h (3 Bft) S 185 0 min
22.03.2018 06:55 3,3 C 3,4 C 2,3 C 89 % 87 % 1015,9 hPa 0,0 l/m 17,6 km/h (3 Bft) W-SW 245 0 min
22.03.2018 07:00 3,3 C 3,4 C 2,3 C 89 % 88 % 1015,9 hPa 0,3 l/m 18,2 km/h (3 Bft) S 170 0 min
22.03.2018 07:05 3,2 C 3,3 C 2,3 C 89 % 88 % 1015,9 hPa 0,0 l/m 17,6 km/h (3 Bft) SW 235 0 min
22.03.2018 07:10 3,1 C 3,2 C 2,3 C 90 % 88 % 1015,9 hPa 0,6 l/m 27,8 km/h (5 Bft) W-SW 240 0 min
22.03.2018 07:15 2,9 C 3,1 C 2,3 C 90 % 88 % 1015,9 hPa 0,3 l/m 21,8 km/h (4 Bft) W-SW 240 0 min
22.03.2018 07:20 2,7 C 2,9 C 2,3 C 91 % 88 % 1015,9 hPa 0,0 l/m 14,5 km/h (3 Bft) W 260 0 min
22.03.2018 07:25 2,6 C 2,8 C 2,3 C 91 % 89 % 1016,9 hPa 0,3 l/m 15,1 km/h (3 Bft) SO 135 0 min
22.03.2018 07:30 2,5 C 2,7 C 2,3 C 92 % 89 % 1016,9 hPa 0,3 l/m 10,9 km/h (2 Bft) SW 235 0 min
22.03.2018 07:35 2,4 C 2,7 C 2,3 C 92 % 90 % 1016,9 hPa 0,3 l/m 13,9 km/h (3 Bft) W-SW 240 0 min
22.03.2018 07:40 2,5 C 2,6 C 2,3 C 93 % 90 % 1015,9 hPa 0,3 l/m 18,2 km/h (3 Bft) S-SW 195 0 min
22.03.2018 07:45 2,5 C 2,7 C 2,3 C 93 % 91 % 1015,9 hPa 0,0 l/m 16,9 km/h (3 Bft) W-NW 300 0 min
22.03.2018 07:50 2,6 C 2,7 C 2,3 C 94 % 91 % 1015,9 hPa 0,3 l/m 14,5 km/h (3 Bft) W-SW 255 0 min
22.03.2018 07:55 2,6 C 2,7 C 2,3 C 94 % 92 % 1015,9 hPa 0,0 l/m 17,6 km/h (3 Bft) SW 225 0 min
22.03.2018 08:00 2,6 C 2,7 C 2,3 C 95 % 92 % 1015,9 hPa 0,0 l/m 12,7 km/h (3 Bft) W-SW 245 0 min
22.03.2018 08:05 2,7 C 2,8 C 2,3 C 95 % 93 % 1015,9 hPa 0,0 l/m 13,3 km/h (3 Bft) W-SW 255 0 min
22.03.2018 08:10 2,7 C 2,8 C 2,3 C 95 % 93 % 1014,9 hPa 0,0 l/m 21,8 km/h (4 Bft) W 260 0 min
22.03.2018 08:15 2,8 C 2,8 C 2,3 C 95 % 93 % 1014,9 hPa 0,0 l/m 15,7 km/h (3 Bft) SW 235 0 min
22.03.2018 08:20 2,8 C 2,9 C 2,3 C 96 % 93 % 1014,9 hPa 0,0 l/m 15,1 km/h (3 Bft) SW 215 0 min
22.03.2018 08:25 2,8 C 2,9 C 2,3 C 96 % 93 % 1014,9 hPa 0,0 l/m 14,5 km/h (3 Bft) W-SW 250 0 min
22.03.2018 08:30 2,9 C 2,9 C 2,3 C 96 % 93 % 1014,9 hPa 0,0 l/m 18,2 km/h (3 Bft) W-NW 285 0 min
22.03.2018 08:35 2,9 C 2,9 C 2,3 C 96 % 93 % 1014,9 hPa 0,3 l/m 18,2 km/h (3 Bft) SW 230 0 min
22.03.2018 08:40 2,9 C 3,0 C 2,3 C 96 % 93 % 1014,9 hPa 0,0 l/m 16,9 km/h (3 Bft) SW 225 0 min
22.03.2018 08:45 3,0 C 3,0 C 2,3 C 96 % 93 % 1014,9 hPa 0,0 l/m 22,4 km/h (4 Bft) SW 235 0 min
22.03.2018 08:50 3,0 C 3,1 C 2,3 C 96 % 93 % 1014,9 hPa 0,0 l/m 11,5 km/h (2 Bft) W-SW 240 0 min
22.03.2018 08:55 3,1 C 3,1 C 2,3 C 96 % 93 % 1014,9 hPa 0,0 l/m 15,7 km/h (3 Bft) W-SW 240 0 min
22.03.2018 09:00 3,1 C 3,1 C 2,3 C 96 % 93 % 1014,9 hPa 0,0 l/m 16,3 km/h (3 Bft) NW 325 0 min
22.03.2018 09:05 3,1 C 3,1 C 2,3 C 95 % 93 % 1014,9 hPa 0,0 l/m 18,8 km/h (3 Bft) SW 235 0 min
22.03.2018 09:10 3,1 C 3,2 C 2,3 C 96 % 93 % 1013,9 hPa 0,0 l/m 12,1 km/h (2 Bft) SO 140 0 min
22.03.2018 09:15 3,1 C 3,2 C 2,3 C 96 % 93 % 1013,9 hPa 0,0 l/m 18,8 km/h (3 Bft) S-SO 165 0 min
22.03.2018 09:20 3,2 C 3,3 C 2,3 C 96 % 93 % 1013,9 hPa 0,0 l/m 21,8 km/h (4 Bft) S-SW 205 0 min
22.03.2018 09:25 3,2 C 3,3 C 2,3 C 96 % 93 % 1014,9 hPa 0,0 l/m 15,7 km/h (3 Bft) W 275 0 min
22.03.2018 09:30 3,3 C 3,4 C 2,3 C 96 % 94 % 1014,9 hPa 0,0 l/m 22,4 km/h (4 Bft) O 80 0 min
22.03.2018 09:35 3,3 C 3,4 C 2,3 C 96 % 94 % 1014,9 hPa 0,0 l/m 22,4 km/h (4 Bft) S-SW 205 0 min
22.03.2018 09:40 3,4 C 3,5 C 2,3 C 96 % 94 % 1013,9 hPa 0,3 l/m 19,4 km/h (3 Bft) N 355 0 min
22.03.2018 09:45 3,4 C 3,5 C 2,3 C 96 % 94 % 1013,9 hPa 0,0 l/m 12,1 km/h (2 Bft) W 260 0 min
22.03.2018 09:50 3,5 C 3,6 C 2,3 C 96 % 94 % 1013,9 hPa 0,0 l/m 22,4 km/h (4 Bft) SW 230 0 min
22.03.2018 09:55 3,5 C 3,6 C 2,3 C 96 % 94 % 1013,9 hPa 0,0 l/m 12,7 km/h (3 Bft) SW 225 0 min
22.03.2018 10:00 3,6 C 3,6 C 2,3 C 96 % 94 % 1013,9 hPa 0,0 l/m 12,1 km/h (2 Bft) W-SW 240 0 min
22.03.2018 10:05 3,6 C 3,7 C 2,3 C 96 % 94 % 1013,9 hPa 0,0 l/m 18,8 km/h (3 Bft) SW 235 0 min
22.03.2018 10:10 3,7 C 3,7 C 2,3 C 96 % 94 % 1013,9 hPa 0,0 l/m 16,3 km/h (3 Bft) N-NW 340 0 min
22.03.2018 10:15 3,7 C 3,8 C 2,3 C 96 % 94 % 1013,9 hPa 0,0 l/m 15,1 km/h (3 Bft) W-NW 290 0 min
22.03.2018 10:20 3,8 C 3,8 C 2,3 C 97 % 94 % 1013,9 hPa 0,0 l/m 13,3 km/h (3 Bft) N-NO 25 0 min
22.03.2018 10:25 3,8 C 3,9 C 2,3 C 97 % 94 % 1013,9 hPa 0,0 l/m 12,1 km/h (2 Bft) SW 230 0 min
22.03.2018 10:30 3,9 C 4,0 C 2,3 C 97 % 94 % 1013,9 hPa 0,0 l/m 15,7 km/h (3 Bft) W-SW 250 0 min
22.03.2018 10:35 3,9 C 4,0 C 2,3 C 97 % 94 % 1013,9 hPa 0,0 l/m 15,1 km/h (3 Bft) N-NW 340 0 min
22.03.2018 10:40 4,0 C 4,1 C 2,3 C 97 % 94 % 1013,9 hPa 0,0 l/m 10,3 km/h (2 Bft) S-SW 210 0 min
22.03.2018 10:45 4,1 C 4,1 C 2,3 C 97 % 94 % 1013,9 hPa 0,0 l/m 16,9 km/h (3 Bft) W-SW 240 0 min
22.03.2018 10:50 4,2 C 4,2 C 2,3 C 97 % 95 % 1013,9 hPa 0,0 l/m 18,2 km/h (3 Bft) N-NO 30 0 min
22.03.2018 10:55 4,2 C 4,3 C 2,3 C 97 % 95 % 1012,9 hPa 0,0 l/m 18,2 km/h (3 Bft) W-SW 255 0 min
22.03.2018 11:00 4,3 C 4,4 C 2,3 C 97 % 95 % 1012,9 hPa 0,0 l/m 14,5 km/h (3 Bft) W 280 0 min
22.03.2018 11:05 4,3 C 4,4 C 2,3 C 97 % 95 % 1012,9 hPa 0,0 l/m 14,5 km/h (3 Bft) NW 310 0 min
22.03.2018 11:10 4,4 C 4,4 C 2,3 C 97 % 95 % 1013,9 hPa 0,0 l/m 15,1 km/h (3 Bft) W-SW 250 0 min
22.03.2018 11:15 4,5 C 4,5 C 2,3 C 97 % 95 % 1013,9 hPa 0,0 l/m 12,1 km/h (2 Bft) W 280 0 min
22.03.2018 11:20 4,6 C 4,6 C 2,3 C 97 % 95 % 1013,9 hPa 0,0 l/m 12,1 km/h (2 Bft) W-SW 240 0 min
22.03.2018 11:25 4,6 C 4,7 C 2,3 C 97 % 95 % 1013,9 hPa 0,0 l/m 19,4 km/h (3 Bft) S 175 0 min
22.03.2018 11:30 4,6 C 4,7 C 2,3 C 97 % 95 % 1013,9 hPa 0,0 l/m 13,9 km/h (3 Bft) W 260 0 min
22.03.2018 11:35 4,7 C 4,9 C 2,3 C 97 % 95 % 1013,9 hPa 0,0 l/m 15,1 km/h (3 Bft) SW 235 0 min
22.03.2018 11:40 4,7 C 4,9 C 2,3 C 97 % 95 % 1013,9 hPa 0,0 l/m 14,5 km/h (3 Bft) N-NW 345 0 min
22.03.2018 11:45 4,8 C 4,9 C 2,3 C 97 % 95 % 1013,9 hPa 0,0 l/m 19,4 km/h (3 Bft) N 350 0 min
22.03.2018 11:50 4,8 C 4,9 C 2,3 C 97 % 95 % 1013,9 hPa 0,0 l/m 17,6 km/h (3 Bft) S-SW 205 0 min
22.03.2018 11:55 4,9 C 5,0 C 2,3 C 97 % 95 % 1012,8 hPa 0,0 l/m 10,3 km/h (2 Bft) N 355 0 min
22.03.2018 12:00 4,9 C 5,1 C 2,3 C 97 % 95 % 1012,8 hPa 0,0 l/m 12,7 km/h (3 Bft) SW 225 0 min
22.03.2018 12:05 5,1 C 5,1 C 2,3 C 97 % 95 % 1012,8 hPa 0,0 l/m 13,3 km/h (3 Bft) W-SW 245 0 min
22.03.2018 12:10 5,1 C 5,2 C 2,3 C 97 % 95 % 1012,8 hPa 0,0 l/m 15,7 km/h (3 Bft) NW 305 0 min
22.03.2018 12:15 5,2 C 5,3 C 2,3 C 97 % 95 % 1012,8 hPa 0,0 l/m 15,1 km/h (3 Bft) W-NW 300 0 min
22.03.2018 12:20 5,4 C 5,4 C 2,3 C 97 % 95 % 1012,8 hPa 0,0 l/m 12,7 km/h (3 Bft) W-NW 290 0 min
22.03.2018 12:25 5,4 C 5,5 C 2,3 C 97 % 95 % 1011,8 hPa 0,0 l/m 16,9 km/h (3 Bft) W-SW 255 0 min
22.03.2018 12:30 5,5 C 5,6 C 2,3 C 97 % 95 % 1011,8 hPa 0,0 l/m 14,5 km/h (3 Bft) NW 305 0 min
22.03.2018 12:35 5,6 C 5,7 C 2,3 C 97 % 95 % 1011,8 hPa 0,0 l/m 16,3 km/h (3 Bft) SW 225 0 min
22.03.2018 12:40 5,6 C 5,8 C 4,5 C 97 % 95 % 1012,8 hPa 0,0 l/m 18,8 km/h (3 Bft) W-NW 300 0 min
22.03.2018 12:45 5,7 C 5,8 C 4,5 C 97 % 95 % 1012,8 hPa 0,0 l/m 21,8 km/h (4 Bft) W 280 0 min
22.03.2018 12:50 5,7 C 5,8 C 4,5 C 97 % 95 % 1012,8 hPa 0,0 l/m 16,9 km/h (3 Bft) W 280 0 min
22.03.2018 12:55 5,7 C 5,9 C 4,5 C 97 % 95 % 1012,8 hPa 0,0 l/m 16,3 km/h (3 Bft) W-SW 245 0 min
22.03.2018 13:00 5,7 C 5,9 C 4,7 C 97 % 95 % 1012,8 hPa 0,0 l/m 10,9 km/h (2 Bft) W-SW 250 0 min
22.03.2018 13:05 5,8 C 5,9 C 4,7 C 97 % 95 % 1012,8 hPa 0,0 l/m 21,2 km/h (4 Bft) W-NW 285 0 min
22.03.2018 13:10 5,9 C 6,0 C 4,7 C 97 % 95 % 1011,8 hPa 0,0 l/m 13,3 km/h (3 Bft) W-SW 240 0 min
22.03.2018 13:15 5,9 C 6,0 C 4,7 C 97 % 95 % 1011,8 hPa 0,0 l/m 13,3 km/h (3 Bft) W 280 0 min
22.03.2018 13:20 6,0 C 6,1 C 4,7 C 97 % 95 % 1011,8 hPa 0,0 l/m 10,3 km/h (2 Bft) N-NW 335 0 min
22.03.2018 13:25 6,0 C 6,1 C 4,7 C 97 % 95 % 1012,8 hPa 0,0 l/m 13,9 km/h (3 Bft) W 280 0 min
22.03.2018 13:30 6,0 C 6,2 C 4,7 C 98 % 95 % 1012,8 hPa 0,0 l/m 16,3 km/h (3 Bft) W-NW 295 0 min
22.03.2018 13:35 6,1 C 6,2 C 4,7 C 98 % 95 % 1012,8 hPa 0,0 l/m 12,1 km/h (2 Bft) W 280 0 min
22.03.2018 13:40 6,1 C 6,2 C 5,1 C 98 % 95 % 1012,8 hPa 0,0 l/m 15,1 km/h (3 Bft) W 265 0 min
22.03.2018 13:45 6,3 C 6,4 C 5,1 C 98 % 96 % 1012,8 hPa 0,0 l/m 12,7 km/h (3 Bft) NW 305 0 min
22.03.2018 13:50 6,4 C 6,5 C 5,1 C 98 % 96 % 1012,8 hPa 0,0 l/m 13,3 km/h (3 Bft) W-SW 240 2 min
22.03.2018 13:55 6,5 C 6,7 C 5,7 C 98 % 96 % 1011,8 hPa 0,0 l/m 10,9 km/h (2 Bft) S 170 4 min
22.03.2018 14:00 6,9 C 7,0 C 5,7 C 97 % 96 % 1011,8 hPa 0,0 l/m 13,9 km/h (3 Bft) NW 310 6 min
22.03.2018 14:05 7,2 C 7,1 C 5,7 C 97 % 96 % 1011,8 hPa 0,0 l/m 12,7 km/h (3 Bft) W-SW 245 2 min
22.03.2018 14:10 7,4 C 7,2 C 6,2 C 97 % 96 % 1011,8 hPa 0,0 l/m 12,1 km/h (2 Bft) W-NW 300 4 min
22.03.2018 14:15 7,3 C 7,2 C 6,1 C 96 % 95 % 1011,8 hPa 0,0 l/m 12,7 km/h (3 Bft) SW 215 0 min
22.03.2018 14:20 7,3 C 7,3 C 5,9 C 95 % 94 % 1011,8 hPa 0,0 l/m 11,5 km/h (2 Bft) W 275 0 min
22.03.2018 14:25 7,3 C 7,3 C 5,7 C 94 % 93 % 1011,8 hPa 0,0 l/m 12,7 km/h (3 Bft) W-NW 290 0 min
22.03.2018 14:30 7,2 C 7,3 C 5,7 C 94 % 93 % 1011,8 hPa 0,0 l/m 12,1 km/h (2 Bft) SW 215 0 min
22.03.2018 14:35 7,2 C 7,2 C 5,7 C 93 % 92 % 1011,8 hPa 0,0 l/m 16,9 km/h (3 Bft) NW 310 0 min
22.03.2018 14:40 7,2 C 7,3 C 5,7 C 93 % 92 % 1010,8 hPa 0,0 l/m 13,3 km/h (3 Bft) W 265 0 min
22.03.2018 14:45 7,2 C 7,3 C 5,5 C 93 % 92 % 1010,8 hPa 0,0 l/m 10,9 km/h (2 Bft) W-NW 285 0 min
22.03.2018 14:50 7,2 C 7,3 C 5,5 C 94 % 92 % 1010,8 hPa 0,0 l/m 12,1 km/h (2 Bft) W-NW 295 0 min
22.03.2018 14:55 7,2 C 7,3 C 5,7 C 94 % 92 % 1011,8 hPa 0,0 l/m 13,9 km/h (3 Bft) NW 310 0 min
22.03.2018 15:00 7,2 C 7,3 C 5,7 C 93 % 92 % 1011,8 hPa 0,0 l/m 13,9 km/h (3 Bft) W 280 0 min
22.03.2018 15:05 7,2 C 7,3 C 5,7 C 94 % 92 % 1011,8 hPa 0,0 l/m 10,9 km/h (2 Bft) NW 315 0 min
22.03.2018 15:10 7,2 C 7,3 C 5,7 C 94 % 92 % 1011,8 hPa 0,0 l/m 12,1 km/h (2 Bft) W-NW 300 0 min
22.03.2018 15:15 7,2 C 7,3 C 5,7 C 94 % 92 % 1011,8 hPa 0,0 l/m 8,5 km/h (2 Bft) W-NW 295 0 min
22.03.2018 15:20 7,3 C 7,4 C 5,7 C 94 % 92 % 1011,8 hPa 0,0 l/m 10,3 km/h (2 Bft) W-NW 285 0 min
22.03.2018 15:25 7,4 C 7,5 C 5,7 C 94 % 92 % 1011,8 hPa 0,0 l/m 8,5 km/h (2 Bft) W-NW 300 0 min
22.03.2018 15:30 7,6 C 7,6 C 5,9 C 93 % 92 % 1011,8 hPa 0,0 l/m 10,9 km/h (2 Bft) S-SW 195 0 min
22.03.2018 15:35 7,7 C 7,7 C 5,9 C 93 % 91 % 1011,8 hPa 0,0 l/m 17,6 km/h (3 Bft) W 260 0 min
22.03.2018 15:40 7,8 C 7,8 C 6,2 C 92 % 91 % 1010,8 hPa 0,0 l/m 14,5 km/h (3 Bft) W-SW 245 0 min
22.03.2018 15:45 7,9 C 7,8 C 6,2 C 91 % 90 % 1010,8 hPa 0,0 l/m 12,1 km/h (2 Bft) W 280 0 min
22.03.2018 15:50 8,0 C 7,9 C 6,2 C 91 % 89 % 1010,8 hPa 0,0 l/m 18,8 km/h (3 Bft) W-NW 290 0 min
22.03.2018 15:55 8,1 C 8,0 C 6,2 C 90 % 89 % 1011,8 hPa 0,0 l/m 13,9 km/h (3 Bft) NW 305 0 min
22.03.2018 16:00 8,0 C 8,0 C 6,4 C 89 % 87 % 1011,8 hPa 0,0 l/m 13,3 km/h (3 Bft) NW 305 0 min
22.03.2018 16:05 8,1 C 8,1 C 6,4 C 88 % 87 % 1011,8 hPa 0,0 l/m 19,4 km/h (3 Bft) W 280 0 min
22.03.2018 16:10 8,1 C 8,2 C 6,2 C 88 % 87 % 1010,8 hPa 0,0 l/m 18,2 km/h (3 Bft) NW 310 0 min
22.03.2018 16:15 8,1 C 8,2 C 6,2 C 88 % 87 % 1010,8 hPa 0,0 l/m 15,7 km/h (3 Bft) W-NW 290 0 min
22.03.2018 16:20 8,1 C 8,1 C 6,2 C 89 % 87 % 1010,8 hPa 0,0 l/m 14,5 km/h (3 Bft) W-NW 285 0 min
22.03.2018 16:25 8,1 C 8,2 C 6,2 C 89 % 88 % 1011,8 hPa 0,0 l/m 14,5 km/h (3 Bft) W 275 0 min
22.03.2018 16:30 8,1 C 8,2 C 6,2 C 88 % 87 % 1011,8 hPa 0,0 l/m 15,7 km/h (3 Bft) W 275 0 min
22.03.2018 16:35 8,1 C 8,2 C 6,2 C 89 % 87 % 1011,8 hPa 0,0 l/m 16,3 km/h (3 Bft) NW 305 0 min
22.03.2018 16:40 8,1 C 8,2 C 6,2 C 89 % 87 % 1010,8 hPa 0,0 l/m 13,3 km/h (3 Bft) W-NW 295 0 min
22.03.2018 16:45 8,1 C 8,2 C 6,1 C 88 % 87 % 1010,8 hPa 0,0 l/m 15,1 km/h (3 Bft) W-NW 285 0 min
22.03.2018 16:50 8,1 C 8,2 C 6,1 C 88 % 87 % 1010,8 hPa 0,0 l/m 16,9 km/h (3 Bft) W 260 0 min
22.03.2018 16:55 8,0 C 8,2 C 6,1 C 88 % 87 % 1010,8 hPa 0,0 l/m 14,5 km/h (3 Bft) W-NW 300 0 min
22.03.2018 17:00 8,0 C 8,1 C 6,1 C 88 % 87 % 1010,8 hPa 0,0 l/m 15,1 km/h (3 Bft) W 280 0 min
22.03.2018 17:05 7,9 C 8,1 C 6,1 C 89 % 87 % 1010,8 hPa 0,0 l/m 12,1 km/h (2 Bft) W-NW 300 0 min
22.03.2018 17:10 7,8 C 8,0 C 6,1 C 89 % 88 % 1010,8 hPa 0,0 l/m 14,5 km/h (3 Bft) NW 310 0 min
22.03.2018 17:15 7,8 C 8,0 C 5,9 C 90 % 88 % 1010,8 hPa 0,0 l/m 14,5 km/h (3 Bft) NW 310 0 min
22.03.2018 17:20 7,7 C 8,0 C 5,9 C 90 % 88 % 1010,8 hPa 0,0 l/m 15,1 km/h (3 Bft) W-NW 300 0 min
22.03.2018 17:25 7,6 C 7,9 C 5,9 C 91 % 89 % 1010,8 hPa 0,0 l/m 17,6 km/h (3 Bft) W 280 0 min
22.03.2018 17:30 7,6 C 7,9 C 5,9 C 90 % 88 % 1010,8 hPa 0,0 l/m 19,4 km/h (3 Bft) NW 310 0 min
22.03.2018 17:35 7,5 C 7,8 C 5,9 C 90 % 88 % 1010,8 hPa 0,0 l/m 16,3 km/h (3 Bft) N-NW 340 0 min
22.03.2018 17:40 7,5 C 7,8 C 5,9 C 91 % 88 % 1010,8 hPa 0,0 l/m 14,5 km/h (3 Bft) NW 315 0 min
22.03.2018 17:45 7,7 C 7,8 C 5,9 C 90 % 87 % 1010,8 hPa 0,0 l/m 16,9 km/h (3 Bft) W-NW 290 0 min
22.03.2018 17:50 7,7 C 7,8 C 5,9 C 89 % 88 % 1010,8 hPa 0,0 l/m 13,3 km/h (3 Bft) W-SW 255 0 min
22.03.2018 17:55 7,7 C 7,9 C 5,9 C 89 % 86 % 1010,8 hPa 0,3 l/m 18,2 km/h (3 Bft) W-NW 300 0 min
22.03.2018 18:00 7,8 C 7,9 C 5,9 C 88 % 87 % 1010,8 hPa 0,0 l/m 15,7 km/h (3 Bft) NW 310 0 min
22.03.2018 18:05 7,8 C 7,9 C 5,9 C 88 % 86 % 1010,8 hPa 0,0 l/m 19,4 km/h (3 Bft) NW 305 0 min
22.03.2018 18:10 7,7 C 7,9 C 5,9 C 88 % 86 % 1011,8 hPa 0,0 l/m 12,1 km/h (2 Bft) W-NW 300 0 min
22.03.2018 18:15 7,7 C 7,8 C 5,7 C 88 % 86 % 1011,8 hPa 0,0 l/m 13,9 km/h (3 Bft) NW 305 0 min
22.03.2018 18:20 7,7 C 7,8 C 5,7 C 87 % 86 % 1011,8 hPa 0,0 l/m 12,7 km/h (3 Bft) NW 305 0 min
22.03.2018 18:25 7,7 C 7,8 C 5,7 C 87 % 86 % 1011,8 hPa 0,0 l/m 15,7 km/h (3 Bft) NW 305 0 min
22.03.2018 18:30 7,7 C 7,8 C 5,7 C 87 % 85 % 1011,8 hPa 0,0 l/m 15,1 km/h (3 Bft) W-NW 300 0 min
22.03.2018 18:35 7,7 C 7,8 C 5,7 C 87 % 85 % 1011,8 hPa 0,0 l/m 12,7 km/h (3 Bft) W-SW 255 0 min
22.03.2018 18:40 7,6 C 7,7 C 5,7 C 87 % 86 % 1009,8 hPa 0,0 l/m 9,1 km/h (2 Bft) W 280 0 min
22.03.2018 18:45 7,5 C 7,6 C 5,7 C 87 % 86 % 1009,8 hPa 0,0 l/m 8,5 km/h (2 Bft) W 280 0 min
22.03.2018 18:50 7,4 C 7,6 C 5,7 C 88 % 86 % 1009,8 hPa 0,0 l/m 7,3 km/h (2 Bft) W 280 0 min
22.03.2018 18:55 7,4 C 7,5 C 5,5 C 88 % 86 % 1010,8 hPa 0,0 l/m 7,3 km/h (2 Bft) W-NW 290 0 min
22.03.2018 19:00 7,3 C 7,4 C 5,5 C 88 % 87 % 1010,8 hPa 0,0 l/m 10,9 km/h (2 Bft) W-NW 300 0 min
22.03.2018 19:05 7,3 C 7,3 C 5,5 C 88 % 87 % 1010,8 hPa 0,0 l/m 10,3 km/h (2 Bft) SW 220 0 min
22.03.2018 19:10 7,3 C 7,3 C 5,5 C 88 % 87 % 1011,8 hPa 0,0 l/m 12,1 km/h (2 Bft) W 280 0 min
22.03.2018 19:15 7,3 C 7,3 C 5,5 C 89 % 87 % 1011,8 hPa 0,0 l/m 10,9 km/h (2 Bft) W-SW 240 0 min
22.03.2018 19:20 7,3 C 7,3 C 5,5 C 89 % 87 % 1011,8 hPa 0,0 l/m 10,9 km/h (2 Bft) W-NW 285 0 min
22.03.2018 19:25 7,2 C 7,3 C 5,5 C 89 % 88 % 1011,8 hPa 0,0 l/m 6,7 km/h (2 Bft) W-NW 295 0 min
22.03.2018 19:30 7,2 C 7,2 C 5,3 C 89 % 88 % 1011,8 hPa 0,0 l/m 11,5 km/h (2 Bft) W-NW 285 0 min
22.03.2018 19:35 7,2 C 7,2 C 5,5 C 89 % 88 % 1011,8 hPa 0,0 l/m 7,9 km/h (2 Bft) NW 305 0 min
22.03.2018 19:40 7,2 C 7,2 C 5,3 C 89 % 88 % 1011,8 hPa 0,0 l/m 11,5 km/h (2 Bft) NW 315 0 min
22.03.2018 19:45 7,2 C 7,2 C 5,5 C 90 % 89 % 1011,8 hPa 0,0 l/m 12,7 km/h (3 Bft) W 275 0 min
22.03.2018 19:50 7,0 C 7,1 C 5,5 C 92 % 90 % 1011,8 hPa 0,0 l/m 13,3 km/h (3 Bft) NW 310 0 min
22.03.2018 19:55 6,9 C 7,0 C 5,5 C 93 % 91 % 1010,8 hPa 0,0 l/m 15,7 km/h (3 Bft) NW 320 0 min
22.03.2018 20:00 6,7 C 6,9 C 5,3 C 94 % 91 % 1010,8 hPa 0,0 l/m 12,1 km/h (2 Bft) W-NW 300 0 min
22.03.2018 20:05 6,7 C 6,8 C 5,3 C 94 % 92 % 1010,8 hPa 0,0 l/m 12,7 km/h (3 Bft) W-NW 290 0 min
22.03.2018 20:10 6,6 C 6,7 C 5,3 C 95 % 92 % 1011,8 hPa 0,0 l/m 13,9 km/h (3 Bft) NW 320 0 min
22.03.2018 20:15 6,6 C 6,7 C 5,3 C 95 % 93 % 1011,8 hPa 0,0 l/m 9,7 km/h (2 Bft) W 280 0 min
22.03.2018 20:20 6,5 C 6,7 C 5,3 C 96 % 93 % 1011,8 hPa 0,0 l/m 4,2 km/h (1 Bft) W 280 0 min
22.03.2018 20:25 6,5 C 6,7 C 5,3 C 96 % 93 % 1011,8 hPa 0,0 l/m 9,7 km/h (2 Bft) W-SW 245 0 min
22.03.2018 20:30 6,5 C 6,7 C 5,3 C 96 % 93 % 1011,8 hPa 0,0 l/m 6,1 km/h (2 Bft) W 280 0 min
22.03.2018 20:35 6,5 C 6,7 C 5,3 C 96 % 93 % 1011,8 hPa 0,0 l/m 9,1 km/h (2 Bft) W-NW 295 0 min
22.03.2018 20:40 6,5 C 6,6 C 5,3 C 96 % 93 % 1011,8 hPa 0,0 l/m 6,7 km/h (2 Bft) NW 325 0 min
22.03.2018 20:45 6,5 C 6,6 C 5,3 C 95 % 93 % 1011,8 hPa 0,0 l/m 7,3 km/h (2 Bft) W 280 0 min
22.03.2018 20:50 6,5 C 6,7 C 5,3 C 95 % 92 % 1011,8 hPa 0,0 l/m 8,5 km/h (2 Bft) N-NW 330 0 min
22.03.2018 20:55 6,6 C 6,7 C 5,3 C 95 % 92 % 1010,8 hPa 0,0 l/m 6,7 km/h (2 Bft) W-SW 240 0 min
22.03.2018 21:00 6,6 C 6,7 C 5,3 C 94 % 91 % 1010,8 hPa 0,0 l/m 10,9 km/h (2 Bft) W-NW 300 0 min
22.03.2018 21:05 6,6 C 6,7 C 5,3 C 93 % 91 % 1010,8 hPa 0,0 l/m 10,9 km/h (2 Bft) NW 315 0 min
22.03.2018 21:10 6,7 C 6,7 C 5,3 C 92 % 90 % 1010,8 hPa 0,0 l/m 12,7 km/h (3 Bft) NW 305 0 min
22.03.2018 21:15 6,7 C 6,7 C 5,3 C 91 % 89 % 1010,8 hPa 0,0 l/m 10,9 km/h (2 Bft) NW 310 0 min
22.03.2018 21:20 6,7 C 6,7 C 5,3 C 90 % 88 % 1010,8 hPa 0,0 l/m 15,7 km/h (3 Bft) W 275 0 min
22.03.2018 21:25 6,7 C 6,7 C 5,1 C 89 % 88 % 1010,8 hPa 0,0 l/m 19,4 km/h (3 Bft) W 275 0 min
22.03.2018 21:30 6,7 C 6,7 C 5,1 C 89 % 88 % 1010,8 hPa 0,0 l/m 12,7 km/h (3 Bft) NW 325 0 min
22.03.2018 21:35 6,6 C 6,7 C 5,1 C 89 % 88 % 1010,8 hPa 0,0 l/m 16,3 km/h (3 Bft) W-NW 285 0 min
22.03.2018 21:40 6,6 C 6,6 C 5,1 C 89 % 88 % 1010,8 hPa 0,0 l/m 12,1 km/h (2 Bft) W-NW 285 0 min
22.03.2018 21:45 6,5 C 6,6 C 5,1 C 90 % 88 % 1010,8 hPa 0,0 l/m 13,3 km/h (3 Bft) W-NW 285 0 min
22.03.2018 21:50 6,4 C 6,5 C 5,1 C 90 % 88 % 1010,8 hPa 0,0 l/m 14,5 km/h (3 Bft) NW 305 0 min
22.03.2018 21:55 6,4 C 6,5 C 5,1 C 90 % 88 % 1011,8 hPa 0,0 l/m 16,9 km/h (3 Bft) W-NW 285 0 min
22.03.2018 22:00 6,4 C 6,5 C 5,1 C 90 % 88 % 1011,8 hPa 0,0 l/m 13,9 km/h (3 Bft) W-NW 290 0 min
22.03.2018 22:05 6,4 C 6,5 C 5,1 C 90 % 88 % 1011,8 hPa 0,0 l/m 12,1 km/h (2 Bft) W 270 0 min
22.03.2018 22:10 6,4 C 6,4 C 5,1 C 90 % 88 % 1011,8 hPa 0,0 l/m 12,7 km/h (3 Bft) W 280 0 min
22.03.2018 22:15 6,3 C 6,3 C 5,1 C 90 % 89 % 1011,8 hPa 0,0 l/m 16,3 km/h (3 Bft) NW 305 0 min
22.03.2018 22:20 6,3 C 6,3 C 5,1 C 90 % 89 % 1011,8 hPa 0,0 l/m 13,3 km/h (3 Bft) W 280 0 min
22.03.2018 22:25 6,3 C 6,3 C 5,1 C 90 % 89 % 1011,8 hPa 0,0 l/m 14,5 km/h (3 Bft) W-SW 255 0 min
22.03.2018 22:30 6,3 C 6,2 C 5,1 C 90 % 89 % 1011,8 hPa 0,0 l/m 11,5 km/h (2 Bft) W 280 0 min
22.03.2018 22:35 6,2 C 6,2 C 5,1 C 90 % 89 % 1011,8 hPa 0,0 l/m 14,5 km/h (3 Bft) S 185 0 min
22.03.2018 22:40 6,2 C 6,2 C 5,1 C 90 % 89 % 1010,8 hPa 0,0 l/m 12,7 km/h (3 Bft) W-SW 245 0 min
22.03.2018 22:45 6,2 C 6,2 C 5,1 C 90 % 89 % 1010,8 hPa 0,0 l/m 14,5 km/h (3 Bft) W-NW 290 0 min
22.03.2018 22:50 6,2 C 6,2 C 4,9 C 90 % 89 % 1010,8 hPa 0,0 l/m 12,7 km/h (3 Bft) W 260 0 min
22.03.2018 22:55 6,2 C 6,2 C 4,9 C 90 % 89 % 1009,8 hPa 0,0 l/m 16,3 km/h (3 Bft) W-NW 300 0 min
22.03.2018 23:00 6,2 C 6,2 C 4,9 C 90 % 88 % 1009,8 hPa 0,0 l/m 18,2 km/h (3 Bft) W 275 0 min
22.03.2018 23:05 6,2 C 6,2 C 4,9 C 90 % 88 % 1009,8 hPa 0,0 l/m 15,7 km/h (3 Bft) W-NW 300 0 min
22.03.2018 23:10 6,1 C 6,2 C 4,9 C 90 % 89 % 1010,8 hPa 0,0 l/m 12,7 km/h (3 Bft) NW 305 0 min
22.03.2018 23:15 6,1 C 6,2 C 4,9 C 90 % 89 % 1010,8 hPa 0,0 l/m 12,1 km/h (2 Bft) W 275 0 min
22.03.2018 23:20 6,1 C 6,1 C 4,9 C 91 % 88 % 1010,8 hPa 0,0 l/m 12,1 km/h (2 Bft) W-NW 290 0 min
22.03.2018 23:25 6,1 C 6,1 C 4,9 C 91 % 89 % 1009,8 hPa 0,0 l/m 10,3 km/h (2 Bft) W 280 0 min
22.03.2018 23:30 6,1 C 6,1 C 4,9 C 91 % 89 % 1009,8 hPa 0,0 l/m 12,1 km/h (2 Bft) W-NW 285 0 min
22.03.2018 23:35 6,0 C 6,1 C 4,9 C 91 % 89 % 1009,8 hPa 0,0 l/m 8,5 km/h (2 Bft) W-NW 295 0 min
22.03.2018 23:40 6,0 C 6,0 C 4,9 C 91 % 89 % 1009,8 hPa 0,0 l/m 9,7 km/h (2 Bft) W-NW 295 0 min
22.03.2018 23:45 6,1 C 6,0 C 4,9 C 91 % 89 % 1009,8 hPa 0,0 l/m 10,9 km/h (2 Bft) W-NW 295 0 min
22.03.2018 23:50 6,0 C 6,0 C 4,9 C 91 % 89 % 1009,8 hPa 0,0 l/m 9,7 km/h (2 Bft) NW 310 0 min
22.03.2018 23:55 6,0 C 6,0 C 4,9 C 91 % 89 % 1009,8 hPa 0,0 l/m 8,5 km/h (2 Bft) N-NW 340 0 min
_ Min-Zeit 07:35 07:40 00:00 02:40 02:40 18:40 - 20:20 - - -
Minimum _ 2,4 C 2,6 C 1,5 C 78 % 78 % 1009,8 hPa - 4,2 km/h (1 Bft) - - -
_ Max-Zeit 15:55 16:10 16:00 13:30 13:45 00:25 07:10 07:10 - - 14:00
Maximum _ 8,1 C 8,2 C 6,4 C 98 % 96 % 1022,9 hPa 0,6 l/m 27,8 km/h
W-SW (5 Bft)
- - 6 min
Durchschnitt _ 5,1 C 5,2 C 3,7 C 90 % 88 % 1014,3 hPa #3,8 l/m 13,5 km/h (3 Bft) SW - #18 min.